Hourly Weather Klekacz

Today, 25 July, Sunday

Time Temperature Precipitation Wind Pressure Humidity
00:00 +18°C° 0 mm 2 mps 740 mmHg 75%
01:00 +18°C° 0 mm 3 mps 740 mmHg 73%
02:00 +18°C° 0 mm 2 mps 740 mmHg 72%
03:00 +18°C° 0 mm 2 mps 740 mmHg 73%
04:00 +17°C° 0 mm 3 mps 740 mmHg 73%
05:00 +17°C° 0 mm 3 mps 740 mmHg 74%
06:00 +18°C° 0 mm 3 mps 740 mmHg 71%
07:00 +20°C° 0 mm 3 mps 741 mmHg 69%
08:00 +21°C° 0 mm 3 mps 741 mmHg 67%
09:00 +24°C° 0 mm 3 mps 741 mmHg 62%
10:00 +25°C° 0 mm 3 mps 741 mmHg 57%
11:00 +27°C° 0 mm 4 mps 741 mmHg 52%
12:00 +28°C° 0 mm 4 mps 741 mmHg 49%
13:00 +28°C° 0 mm 4 mps 741 mmHg 47%
14:00 +29°C° 0 mm 4 mps 741 mmHg 44%
15:00 +29°C° 0 mm 4 mps 740 mmHg 45%
16:00 +29°C° 0 mm 4 mps 740 mmHg 47%
17:00 +28°C° 0 mm 4 mps 740 mmHg 48%
18:00 +27°C° 0 mm 3 mps 740 mmHg 56%
19:00 +25°C° 0 mm 3 mps 740 mmHg 64%
20:00 +22°C° 0 mm 3 mps 740 mmHg 71%
21:00 +22°C° 0 mm 3 mps 740 mmHg 73%
22:00 +22°C° 0 mm 3 mps 740 mmHg 74%
23:00 +21°C° 0 mm 3 mps 740 mmHg 75%

Tomorrow, 26 July, Monday

Time Temperature Precipitation Wind Pressure Humidity
00:00 +21°C° 0 mm 3 mps 740 mmHg 73%
01:00 +21°C° 0 mm 4 mps 740 mmHg 71%
02:00 +21°C° 0 mm 4 mps 740 mmHg 70%
03:00 +20°C° 0 mm 4 mps 740 mmHg 71%
04:00 +20°C° 0 mm 4 mps 739 mmHg 72%
05:00 +19°C° 0 mm 4 mps 739 mmHg 73%
06:00 +20°C° 0 mm 4 mps 739 mmHg 72%
07:00 +21°C° 0 mm 4 mps 739 mmHg 72%
08:00 +21°C° 0 mm 4 mps 739 mmHg 71%
09:00 +22°C° 0 mm 4 mps 740 mmHg 71%
10:00 +22°C° 0 mm 3 mps 740 mmHg 70%
11:00 +22°C° 0 mm 3 mps 740 mmHg 70%
12:00 +25°C° 0 mm 4 mps 740 mmHg 64%
13:00 +27°C° 0 mm 4 mps 740 mmHg 58%
14:00 +29°C° 0 mm 5 mps 740 mmHg 51%
15:00 +29°C° 0 mm 5 mps 739 mmHg 54%
16:00 +29°C° 0 mm 5 mps 739 mmHg 56%
17:00 +29°C° 0 mm 5 mps 739 mmHg 58%
18:00 +27°C° 0.9 mm 5 mps 739 mmHg 65%
19:00 +26°C° 0.9 mm 5 mps 738 mmHg 73%
20:00 +23°C° 0.9 mm 4 mps 738 mmHg 80%
21:00 +22°C° 2 mm 4 mps 738 mmHg 84%
22:00 +21°C° 2 mm 3 mps 738 mmHg 88%
23:00 +20°C° 2 mm 2 mps 739 mmHg 91%

Day after tomorrow, 27 July, Tuesday

Time Temperature Precipitation Wind Pressure Humidity
00:00 +19°C° 0.4 mm 2 mps 739 mmHg 92%
01:00 +19°C° 0.4 mm 2 mps 738 mmHg 93%
02:00 +19°C° 0.4 mm 2 mps 738 mmHg 94%
03:00 +18°C° 0.1 mm 2 mps 738 mmHg 93%
04:00 +18°C° 0.1 mm 2 mps 738 mmHg 93%
05:00 +18°C° 0.1 mm 2 mps 738 mmHg 92%
06:00 +20°C° 0.4 mm 2 mps 738 mmHg 88%
07:00 +23°C° 0.4 mm 2 mps 738 mmHg 83%
08:00 +24°C° 0.4 mm 2 mps 739 mmHg 79%
09:00 +26°C° 0 mm 3 mps 739 mmHg 72%
10:00 +27°C° 0 mm 3 mps 739 mmHg 65%
11:00 +29°C° 0 mm 4 mps 739 mmHg 59%
12:00 +29°C° 0.1 mm 4 mps 739 mmHg 59%
13:00 +29°C° 0.1 mm 4 mps 739 mmHg 59%
14:00 +29°C° 0.1 mm 5 mps 739 mmHg 59%
15:00 +29°C° 0.2 mm 5 mps 739 mmHg 62%
16:00 +29°C° 0.2 mm 5 mps 739 mmHg 64%
17:00 +28°C° 0.2 mm 5 mps 739 mmHg 67%
18:00 +27°C° 0 mm 4 mps 739 mmHg 72%
19:00 +25°C° 0 mm 3 mps 739 mmHg 78%
20:00 +24°C° 0 mm 2 mps 739 mmHg 83%
21:00 +23°C° 0 mm 1 mps 739 mmHg 85%
22:00 +23°C° 0 mm 1 mps 739 mmHg 86%
23:00 +22°C° 0 mm 1 mps 739 mmHg 88%

28 July, Wednesday

Time Temperature Precipitation Wind Pressure Humidity
00:00 +22°C° 0.2 mm 1 mps 739 mmHg 88%
01:00 +21°C° 0.2 mm 1 mps 739 mmHg 89%
02:00 +21°C° 0.2 mm 1 mps 739 mmHg 89%
03:00 +21°C° 0 mm 1 mps 739 mmHg 90%
04:00 +19°C° 0 mm 2 mps 739 mmHg 90%
05:00 +19°C° 0 mm 2 mps 739 mmHg 90%
06:00 +21°C° 0 mm 2 mps 740 mmHg 85%
07:00 +23°C° 0 mm 2 mps 740 mmHg 79%
08:00 +25°C° 0 mm 2 mps 740 mmHg 74%
09:00 +26°C° 0 mm 2 mps 740 mmHg 65%
10:00 +28°C° 0 mm 1 mps 740 mmHg 57%
11:00 +29°C° 0 mm 1 mps 740 mmHg 48%
12:00 +30°C° 0 mm 1 mps 740 mmHg 46%
13:00 +31°C° 0 mm 1 mps 740 mmHg 44%
14:00 +31°C° 0 mm 1 mps 739 mmHg 43%
15:00 +31°C° 0 mm 2 mps 739 mmHg 45%
16:00 +30°C° 0 mm 2 mps 739 mmHg 48%
17:00 +30°C° 0 mm 2 mps 738 mmHg 51%
18:00 +27°C° 1 mm 2 mps 738 mmHg 63%
19:00 +25°C° 1 mm 2 mps 738 mmHg 75%
20:00 +22°C° 1 mm 3 mps 738 mmHg 86%
21:00 +21°C° 2.1 mm 3 mps 738 mmHg 88%
22:00 +21°C° 2.1 mm 3 mps 738 mmHg 91%
23:00 +20°C° 2.1 mm 4 mps 738 mmHg 93%

29 July, Thursday

Time Temperature Precipitation Wind Pressure Humidity
00:00 +20°C° 0.1 mm 3 mps 738 mmHg 93%
01:00 +19°C° 0.1 mm 2 mps 738 mmHg 94%
02:00 +20°C° 0.1 mm 1 mps 738 mmHg 94%
03:00 +19°C° 1.2 mm 2 mps 738 mmHg 95%
04:00 +19°C° 1.2 mm 2 mps 738 mmHg 96%
05:00 +18°C° 1.2 mm 2 mps 738 mmHg 97%
06:00 +19°C° 0.8 mm 2 mps 738 mmHg 95%
07:00 +19°C° 0.8 mm 2 mps 739 mmHg 94%
08:00 +20°C° 0.8 mm 3 mps 739 mmHg 93%
09:00 +21°C° 0.1 mm 3 mps 739 mmHg 89%
10:00 +22°C° 0.1 mm 3 mps 739 mmHg 85%
11:00 +22°C° 0.1 mm 3 mps 740 mmHg 82%
12:00 +23°C° 0.2 mm 4 mps 740 mmHg 78%
13:00 +25°C° 0.2 mm 4 mps 740 mmHg 75%
14:00 +25°C° 0.2 mm 5 mps 740 mmHg 72%
15:00 +25°C° 0.1 mm 4 mps 740 mmHg 71%
16:00 +25°C° 0.1 mm 4 mps 740 mmHg 70%
17:00 +26°C° 0.1 mm 4 mps 739 mmHg 69%
18:00 +25°C° 0 mm 3 mps 739 mmHg 73%
19:00 +22°C° 0 mm 3 mps 739 mmHg 77%
20:00 +21°C° 0 mm 2 mps 739 mmHg 81%
21:00 +21°C° 0 mm 2 mps 739 mmHg 82%
22:00 +21°C° 0 mm 1 mps 739 mmHg 83%
23:00 +20°C° 0 mm 1 mps 739 mmHg 85%

30 July, Friday

Time Temperature Precipitation Wind Pressure Humidity
00:00 +20°C° 0 mm 1 mps 739 mmHg 85%
01:00 +19°C° 0 mm 1 mps 739 mmHg 86%
02:00 +19°C° 0 mm 1 mps 739 mmHg 86%
03:00 +19°C° 0 mm 1 mps 739 mmHg 87%
04:00 +18°C° 0 mm 1 mps 739 mmHg 88%
05:00 +18°C° 0 mm 1 mps 739 mmHg 88%
06:00 +20°C° 0 mm 1 mps 739 mmHg 83%
07:00 +22°C° 0 mm 1 mps 739 mmHg 77%
08:00 +23°C° 0 mm 1 mps 739 mmHg 72%
09:00 +25°C° 0 mm 1 mps 739 mmHg 66%
10:00 +26°C° 0 mm 2 mps 739 mmHg 61%
11:00 +27°C° 0 mm 2 mps 738 mmHg 55%
12:00 +28°C° 0 mm 2 mps 738 mmHg 53%
13:00 +29°C° 0 mm 2 mps 738 mmHg 50%
14:00 +30°C° 0 mm 2 mps 738 mmHg 48%
15:00 +30°C° 0 mm 2 mps 737 mmHg 49%
16:00 +30°C° 0 mm 3 mps 737 mmHg 50%
17:00 +30°C° 0 mm 3 mps 737 mmHg 51%
18:00 +28°C° 0 mm 3 mps 736 mmHg 59%
19:00 +27°C° 0 mm 3 mps 736 mmHg 67%
20:00 +25°C° 0 mm 3 mps 736 mmHg 75%
21:00 +24°C° 0.1 mm 3 mps 736 mmHg 78%
22:00 +22°C° 0.1 mm 3 mps 736 mmHg 80%
23:00 +22°C° 0.1 mm 3 mps 736 mmHg 83%
Show more